NOAA 17 DEB, 48754

Orbit data source: Space-Track

NOAA 17 DEB, 48754 is space debris in SSO originally from a launch on Mon, 24 Jun 2002 UTC launched from the Air Force Western Test Range (AFWTR). Debris objects in space refer to the collection of defunct objects orbiting the Earth. Examples of debris include non-operational satellites, rocket bodies, and fragments generated from explosions, collisions, or faulty payload assembly.

Loading next visibility...
Identifier
48754, 2002-032CP
Orbit
SSO
Country
Flag of USUS
Related business
Manufacturer
Unknown
Mission
Spacecraft
Bus & Motor
Unknown
Mass
Unknown
Launch date (UTC)
2002-06-24 (23 years ago)
Launch vehicle
Unknown
Launch site
Air Force Western Test Range (AFWTR)
Object type
Payload
Rocket body
Debris
Shape & HBR
Unknown shape, 0.1 m
Radar Cross Section
Small (<0.1 m²)

Expand to show TLE details & history
Last TLE update: 4 days ago

TLE from 4 days ago
0 NOAA 17 DEB
1 48754U 02032CP  25345.93679720  .00024376  00000-0  44502-2 0  9996
2 48754  98.9450  24.7396 0012333  29.4420 330.7473 14.65884031247087
Epoch: 2025-12-11T22:28Z
TLE epoch observation values (Epoch: 2025-12-11T22:28:59.278Z)
Latitude
-0.00002°
Longitude
-33.393°
Altitude
669.62 km
Speed
7.526 km/s
True Right ascension
01h 38m 57s
True Declination
0° 00' 00"
Sunlit
Object was in full shadow at epoch
Visualization orbit readout
Latitude
Unknown
Longitude
Unknown
Altitude
Unknown
Speed
Unknown
Apparent Right ascension
Unknown
Apparent Declination
Unknown
Sunlit
N/A
Visualization observer readout
Local Sidereal Time
22:49:21
Azimuth
Unknown
Elevation
Unknown
Doppler factor
Unknown
Orbital elements
Apogee altitude
680.042 km
Perigee altitude
662.654 km
Semi-major axis
7,049.485 km
Eccentricity
0.00123
Inclination
98.945°
RAAN
24.7396°
Arg. of periapsis
29.442°
True anomaly
330.67815°
Mean anomaly
330.7473°
Eccentric anomaly
330.71273°
Mean motion
3.66697 °/min
Orbital period
98.17 mins
BSTAR
0.0044502
Loading maneuver chart data...
Computing Atmospheric mass density...

Documentation

Showing up to 5 results
|